map of FEZ home
FEZ - Airport
Location
City:  Fez, Taza-Al Hoceima-Taounate, Morocco
Near (Alt.):Fès
Name:Fès-Saïss International Airport
ICAO:GMFF
IATA:FEZ

Details
Type:Airport (Aerodrome, Airfield)
Use:Public/Civil, International (customs port of entry)
Latitude:33°55'38"N (33.927222)
Longitude:4°58'40"W (-4.977777)
Elevation:1896 ft (578 m)
Variation:0.94°W (WMM2015 magnetic declination)
0.11° annual change
Runways:1
Longest:10499 × 148 ft (3200 × 45 m), paved

Time
Time Zone:UTC+0 (DST+1)
Local Time:

Weather
METAR:GMFF 221200Z 07010KT 050V120 9999 FEW026 BKN230 27/10 Q1020 NOSIG
TAF:GMFF 221100Z 2212/2318 06006KT 9999 FEW026 SCT230
TEMPO 2306/2312 26012KT RA SCT010 BKN026 BKN100

Related Locations
Nearby:
Farthest:KKE: 12322 mi / 19830 km
Kerikeri/Bay of Islands, NTL, NZ

Find:

   beyond  
but within

Other Information
Maps:
NOTAMs:
Links:
Sources:

  
  • flag of Morocco
  

Sectional Chart

Flight Planning
at skyvector.com

Satellite Image

Google Maps Satellite view

 

Copyright © 2004-2018 Karl L. Swartz. All rights reserved.
The Great Circle Mapper name and logo are trademarks of the Great Circle Mapper.
All other trademarks mentioned herein belong to their respective owners.
Please see credits for attibutions and further copyright information.

  Follow gcmap on Facebook Follow gcmap on Twitter Follow gcmap on Google+ GCmap on LinkedIn

hCard Microformat

Geo Microformat